TimeCDT,TemperatureF,Dew PointF,Humidity,Sea Level PressureIn,VisibilityMPH,Wind Direction,Wind SpeedMPH,Gust SpeedMPH,PrecipitationIn,Events,Conditions,WindDirDegrees,DateUTC
12:58 AM,70.0,65.3,85,30.21,10.0,East,3.5,-,N/A,,Clear,80,2013-08-25 05:58:00
1:58 AM,70.2,64.9,83,30.20,10.0,East,5.8,-,N/A,,Clear,90,2013-08-25 06:58:00
2:58 AM,69.8,65.1,85,30.22,10.0,East,3.5,-,N/A,,Clear,100,2013-08-25 07:58:00
3:58 AM,69.3,66.0,89,30.23,10.0,ESE,4.6,-,N/A,,Mostly Cloudy,110,2013-08-25 08:58:00
4:58 AM,69.1,66.0,90,30.24,10.0,ESE,4.6,-,N/A,,Partly Cloudy,120,2013-08-25 09:58:00
5:58 AM,68.9,67.8,96,30.25,10.0,SE,3.5,-,N/A,,Scattered Clouds,130,2013-08-25 10:58:00
6:58 AM,69.3,69.1,99,30.28,10.0,ESE,2.3,-,N/A,,Partly Cloudy,120,2013-08-25 11:58:00
7:58 AM,74.7,69.4,84,30.30,10.0,South,5.8,-,N/A,,Partly Cloudy,190,2013-08-25 12:58:00
8:58 AM,77.5,68.5,74,30.30,10.0,South,9.2,-,N/A,,Clear,190,2013-08-25 13:58:00
9:58 AM,80.4,68.4,67,30.30,10.0,SSE,9.2,-,N/A,,Clear,160,2013-08-25 14:58:00
10:58 AM,81.7,68.9,65,30.30,10.0,South,10.4,-,N/A,,Clear,190,2013-08-25 15:58:00
11:58 AM,83.1,70.0,64,30.29,10.0,Variable,4.6,-,N/A,,Clear,0,2013-08-25 16:58:00
12:58 PM,84.7,70.9,63,30.26,10.0,SSE,6.9,-,N/A,,Clear,150,2013-08-25 17:58:00
1:58 PM,84.2,70.2,63,30.24,10.0,South,4.6,-,N/A,,Scattered Clouds,180,2013-08-25 18:58:00
2:58 PM,86.9,70.9,59,30.23,10.0,Variable,6.9,-,N/A,,Mostly Cloudy,0,2013-08-25 19:58:00
3:58 PM,86.7,69.4,56,30.21,10.0,SE,4.6,-,N/A,,Mostly Cloudy,140,2013-08-25 20:58:00
4:58 PM,86.5,67.8,53,30.21,10.0,South,5.8,-,N/A,,Scattered Clouds,190,2013-08-25 21:58:00
5:58 PM,85.5,68.4,56,30.22,10.0,SSE,8.1,-,N/A,,Partly Cloudy,160,2013-08-25 22:58:00
6:58 PM,82.8,69.1,63,30.21,10.0,South,5.8,-,N/A,,Clear,170,2013-08-25 23:58:00
7:58 PM,81.1,68.2,65,30.22,10.0,SSE,4.6,-,N/A,,Clear,150,2013-08-26 00:58:00
8:58 PM,75.9,69.6,81,30.24,10.0,East,1.2,-,N/A,,Clear,80,2013-08-26 01:58:00
9:58 PM,77.7,69.1,75,30.25,10.0,SSE,4.6,-,N/A,,Clear,160,2013-08-26 02:58:00
10:58 PM,73.8,70.0,88,30.26,10.0,Calm,Calm,-,N/A,,Clear,0,2013-08-26 03:58:00
11:58 PM,70.7,70.7,100,30.26,10.0,Calm,Calm,-,N/A,,Clear,0,2013-08-26 04:58:00